Port Angeles, WA
on Sunday, January 6, 2013

Sunday
Previous Day Next Day
Daily Summary
 ActualAverageRecord
Temperature
Mean Temperature °F °F  
Max Temperature 44°F 43°F 52°F (1981)
Min Temperature 35°F 31°F 17°F (1973)
Degree Days
Heating Degree Days 26    
Moisture
Dew Point 37°F   
Average Humidity 89    
Maximum Humidity 97    
Minimum Humidity 79    
Precipitation
Precipitation 0.00 in in in ()
Wind
Wind Speed 3 mph   
Max Wind Speed 7 mph   
Max Gust Speed mph   
Visibility 10 miles   
Events Rain   
Averages and records for this station are not official NWS values.
Key: T is trace of precipitation, MM is missing value
Source: NWS Daily Summary
Seasonal Weather Averages
Time(PST)TemperatureDew PointHumidity Pressure Visibility Wind DirectionWind SpeedGust SpeedPrecipitationEvents Conditions
12:53 AM 37.9°F 36.0°F 93% 30.12 in 10.0 miles WSW 4.6 mph - N/A   Overcast
1:53 AM 37.0°F 35.1°F 93% 30.12 in 10.0 miles Calm Calm - N/A   Mostly Cloudy
2:53 AM 36.0°F 34.0°F 93% 30.12 in 10.0 miles SW 4.6 mph - N/A   Partly Cloudy
3:53 AM 36.0°F 34.0°F 93% 30.12 in 10.0 miles SW 6.9 mph - N/A   Partly Cloudy
4:53 AM 36.0°F 34.0°F 93% 30.12 in 10.0 miles SW 5.8 mph - N/A   Partly Cloudy
5:53 AM 36.0°F 34.0°F 93% 30.11 in 10.0 miles WSW 6.9 mph - N/A   Overcast
6:53 AM 35.1°F 33.1°F 92% 30.11 in 10.0 miles Variable 3.5 mph - N/A   Partly Cloudy
7:53 AM 36.0°F 34.0°F 93% 30.12 in 10.0 miles SW 3.5 mph - N/A   Overcast
8:53 AM 37.9°F 35.1°F 89% 30.11 in 10.0 miles WSW 5.8 mph - N/A   Overcast
9:53 AM 39.0°F 36.0°F 89% 30.14 in 10.0 miles WSW 4.6 mph - N/A   Overcast
10:12 AM 39.9°F 36.0°F 86% 30.13 in 10.0 miles WSW 3.5 mph - N/A   Overcast
10:53 AM 43.0°F 37.9°F 82% 30.14 in 10.0 miles Calm Calm - N/A   Overcast
11:53 AM 44.1°F 39.0°F 82% 30.09 in 10.0 miles Calm Calm - N/A   Overcast
12:53 PM 44.1°F 39.0°F 82% 30.09 in 10.0 miles Calm Calm - N/A   Overcast
1:15 PM 44.1°F 37.9°F 79% 30.07 in 10.0 miles Calm Calm - N/A   Overcast
1:42 PM 44.1°F 39.0°F 82% 30.06 in 10.0 miles Calm Calm - N/A   Overcast
1:53 PM 44.1°F 37.9°F 79% 30.07 in 10.0 miles Calm Calm - N/A   Overcast
2:53 PM 44.1°F 39.0°F 82% 30.06 in 10.0 miles Calm Calm - N/A   Overcast
3:53 PM 43.0°F 39.0°F 86% 30.06 in 10.0 miles Calm Calm - N/A   Overcast
4:53 PM 41.0°F 39.0°F 93% 30.03 in 10.0 miles SSE 3.5 mph - 0.00 in   Overcast
5:53 PM 41.0°F 39.0°F 93% 30.01 in 10.0 miles Calm Calm - N/A   Overcast
6:53 PM 39.9°F 39.0°F 97% 30.00 in 10.0 miles Calm Calm - N/A   Overcast
7:53 PM 39.9°F 37.9°F 93% 29.99 in 10.0 miles Calm Calm - 0.00 in   Overcast
8:53 PM 39.9°F 37.9°F 93% 29.96 in 10.0 miles Calm Calm - 0.00 in   Overcast
9:53 PM 39.9°F 37.9°F 93% 29.93 in 10.0 miles Calm Calm - N/A   Overcast
10:53 PM 39.9°F 37.9°F 93% 29.91 in 10.0 miles Calm Calm - 0.00 in Rain Light Rain
11:53 PM 39.9°F 37.9°F 93% 29.89 in 10.0 miles SSE 5.8 mph - 0.00 in   Overcast
Moon Phase
Jan. 06 Jan. 11 Jan. 18 Jan. 26 Feb. 03
Sunrise:08:03 AM (PST) Moon Rise:02:14 AM (PST)1/6
Sunset:04:36 PM (PST) Moon Set:12:16 PM (PST)1/6

Copyright © 2014 The Weather Underground, Inc.